Tracking 17857 objects as of 1-October-2016
HD Live streaming from Space Station
objects crossing your sky now

SCOUT X-4 DEB

Track SCOUT X-4 DEB now!
10-day predictions


NORAD ID: 2088
Int'l Code: 1965-093D
Perigee: 660.6 km
Apogee: 780.1 km
Inclination: 59.7 °
Period: 99.0 minutes
Semi major axis: 7091 km
RCS: 0.0298 m2 (small)
Launch date: November 19, 1965
Source: United States (US)
Launch site: WALLOPS ISLAND (WLPIS)

Note: This is SATELLITE DEBRIS
Your satellite tracking list
Your tracking list is empty





NASA's NSSDC Master Catalog

Two Line Element Set (TLE):
1  2088U 65093D   16274.85709135 +.00000289 +00000-0 +10278-3 0  9999
2  2088 059.7192 287.1802 0084310 354.5111 005.5000 14.53814876637493
Source of the keplerian elements: AFSPC

N2YO: 694